| time (UTC) | temp C | wind direction | speed KPH | gust KPH | rain 1hr cm | rain 24hr cm | rain mn cm | humidity % | barometer mb |
| 20260505011612 | 10 | 219 | 3.2 | 6.4 | 0.00 | 0.00 | 0.00 | 77 | 1007.7 |
| 20260505010137 | 10 | 183 | 3.2 | 8.0 | 0.00 | 0.00 | 0.00 | 76 | 1007.5 |
| 20260505004634 | 10 | 225 | 0.0 | 4.8 | 0.00 | 0.00 | 0.00 | 75 | 1007.4 |
| 20260505003113 | 10 | 172 | 0.0 | 3.2 | 0.00 | 0.00 | 0.00 | 73 | 1007.2 |
| 20260505001648 | 11 | 180 | 1.6 | 4.8 | 0.00 | 0.00 | 0.00 | 72 | 1006.9 |
| 20260505000135 | 12 | 181 | 1.6 | 4.8 | 0.00 | 0.00 | 0.00 | 68 | 1006.8 |
| 20260504234528 | 12 | 175 | 3.2 | 6.4 | 0.00 | 0.00 | 0.00 | 64 | 1006.6 |
| 20260504233032 | 13 | 169 | 1.6 | 6.4 | 0.00 | 0.00 | 0.00 | 60 | 1006.4 |
| 20260504231503 | 14 | 174 | 3.2 | 6.4 | 0.00 | 0.00 | 0.00 | 58 | 1006.1 |
| 20260504230136 | 14 | 173 | 3.2 | 9.7 | 0.00 | 0.00 | 0.00 | 59 | 1006.1 |
| 20260504224637 | 15 | 184 | 4.8 | 9.7 | 0.00 | 0.00 | 0.00 | 61 | 1006.0 |
| 20260504223036 | 15 | 157 | 3.2 | 11.3 | 0.00 | 0.00 | 0.00 | 62 | 1005.9 |
| 20260504221553 | 16 | 153 | 4.8 | 14.5 | 0.00 | 0.00 | 0.00 | 60 | 1005.9 |
| 20260504220001 | 16 | 175 | 3.2 | 9.7 | 0.00 | 0.00 | 0.00 | 58 | 1005.8 |
| 20260504214534 | 17 | 176 | 3.2 | 12.9 | 0.00 | 0.00 | 0.00 | 54 | 1005.8 |
| 20260504213135 | 18 | 59 | 1.6 | 12.9 | 0.00 | 0.00 | 0.00 | 52 | 1005.6 |
| 20260504211641 | 18 | 90 | 8.0 | 14.5 | 0.00 | 0.00 | 0.00 | 55 | 1005.6 |
| 20260504210138 | 18 | 46 | 4.8 | 9.7 | 0.00 | 0.00 | 0.00 | 55 | 1005.7 |
| 20260504204641 | 18 | 225 | 1.6 | 8.0 | 0.00 | 0.00 | 0.00 | 57 | 1005.7 |
| 20260504203050 | 17 | 19 | 4.8 | 11.3 | 0.00 | 0.00 | 0.00 | 59 | 1005.7 |
| 20260504201529 | 17 | 38 | 6.4 | 12.9 | 0.00 | 0.00 | 0.00 | 55 | 1006.0 |
| 20260504200148 | 16 | 63 | 4.8 | 14.5 | 0.00 | 0.00 | 0.00 | 58 | 1005.9 |
| 20260504194502 | 17 | 22 | 6.4 | 11.3 | 0.00 | 0.00 | 0.00 | 58 | 1005.9 |
| 20260504193118 | 17 | 188 | 1.6 | 8.0 | 0.00 | 0.00 | 0.00 | 60 | 1005.9 |
| 20260504191534 | 17 | 355 | 3.2 | 8.0 | 0.00 | 0.00 | 0.00 | 61 | 1006.0 |
| 20260504190024 | 15 | 329 | 0.0 | 3.2 | 0.00 | 0.00 | 0.00 | 67 | 1006.3 |
| 20260504184634 | 13 | 185 | 0.0 | 3.2 | 0.00 | 0.00 | 0.00 | 66 | 1006.4 |
| 20260504183039 | 13 | 169 | 0.0 | 4.8 | 0.00 | 0.00 | 0.00 | 62 | 1006.3 |
| 20260504181635 | 13 | 203 | 3.2 | 8.0 | 0.00 | 0.00 | 0.00 | 61 | 1006.2 |
| 20260504180140 | 13 | 178 | 1.6 | 6.4 | 0.00 | 0.00 | 0.00 | 62 | 1006.2 |
| 20260504174610 | 14 | 226 | 3.2 | 8.0 | 0.00 | 0.00 | 0.00 | 58 | 1006.3 |
| 20260504173048 | 15 | 219 | 4.8 | 22.5 | 0.00 | 0.00 | 0.00 | 54 | 1006.0 |
| 20260504170151 | 15 | 213 | 11.3 | 22.5 | 0.00 | 0.00 | 0.00 | 53 | 1005.7 |
| 20260504160117 | 15 | 200 | 8.0 | 19.3 | 0.00 | 0.03 | 0.00 | 54 | 1006.2 |
| 20260504150147 | 14 | 197 | 9.7 | 17.7 | 0.00 | 0.08 | 0.00 | 59 | 1007.1 |
| 20260504140141 | 12 | 202 | 6.4 | 16.1 | 0.00 | 0.20 | 0.00 | 61 | 1007.9 |
| 20260504130144 | 11 | 193 | 8.0 | 14.5 | 0.00 | 0.23 | 0.00 | 63 | 1008.4 |
| 20260504120147 | 9 | 242 | 6.4 | 14.5 | 0.00 | 0.25 | 0.00 | 63 | 1008.9 |
| 20260504110141 | 6 | 200 | 3.2 | 6.4 | 0.00 | 0.25 | 0.00 | 69 | 1009.0 |
| 20260504100120 | 2 | 184 | 0.0 | 4.8 | 0.00 | 0.25 | 0.00 | 80 | 1008.7 |
| 20260504081616 | 1 | 208 | 0.0 | 0.0 | 0.00 | 0.25 | 0.00 | 78 | 1008.5 |
| 20260504080146 | 1 | 208 | 0.0 | 0.0 | 0.00 | 0.25 | 0.00 | 79 | 1008.5 |
| 20260504070141 | 2 | 291 | 0.0 | 4.8 | 0.00 | 0.25 | 0.00 | 78 | 1008.5 |
| 20260504060112 | 2 | 194 | 0.0 | 0.0 | 0.00 | 0.25 | 0.00 | 78 | 1008.3 |
| 20260504050148 | 2 | 169 | 0.0 | 3.2 | 0.00 | 0.25 | 0.00 | 74 | 1008.2 |
| 20260504044549 | 3 | 219 | 0.0 | 0.0 | 0.00 | 0.25 | 0.00 | 73 | 1008.3 |
| 20260504043146 | 3 | 260 | 0.0 | 0.0 | 0.00 | 0.25 | 0.00 | 74 | 1008.3 |
| 20260504041631 | 3 | 252 | 0.0 | 0.0 | 0.00 | 0.25 | 0.00 | 72 | 1008.2 |
| 20260504040116 | 3 | 248 | 0.0 | 0.0 | 0.00 | 0.25 | 0.00 | 72 | 1008.2 |
| 20260504034640 | 3 | 244 | 0.0 | 0.0 | 0.00 | 0.25 | 0.25 | 71 | 1008.0 |
| 20260504033113 | 4 | 256 | 0.0 | 1.6 | 0.00 | 0.25 | 0.25 | 70 | 1007.9 |
| 20260504031643 | 5 | 163 | 0.0 | 0.0 | 0.00 | 0.25 | 0.25 | 67 | 1007.9 |
| 20260504030143 | 5 | 225 | 0.0 | 1.6 | 0.00 | 0.25 | 0.25 | 67 | 1007.9 |
| 20260504024613 | 6 | 225 | 0.0 | 6.4 | 0.00 | 0.25 | 0.25 | 64 | 1007.8 |
| 20260504023141 | 6 | 250 | 0.0 | 4.8 | 0.00 | 0.25 | 0.25 | 63 | 1007.8 |
| 20260504021501 | 6 | 267 | 1.6 | 9.7 | 0.00 | 0.25 | 0.25 | 62 | 1007.8 |
| 20260504020117 | 6 | 271 | 1.6 | 8.0 | 0.00 | 0.25 | 0.25 | 61 | 1007.7 |
| 20260504014631 | 6 | 257 | 1.6 | 9.7 | 0.00 | 0.25 | 0.25 | 60 | 1007.7 |
| 20260504013138 | 6 | 295 | 1.6 | 9.7 | 0.00 | 0.25 | 0.25 | 59 | 1007.5 |